Fort Polk, LA

10:05 AM CST on February 20, 2018 (GMT -0600)
Polk Army Air Field

Weather History for KPOE - August, 2013

Change the Weather History Date:

Wednesday, August 21, 2013

  Actual Average Record
Temperature  
Mean Temperature 84 °F -  
Max Temperature 95 °F 89 °F 100 °F (2011)
Min Temperature 72 °F 71 °F 69 °F (1996)
Cooling Degree Days 18    
Growing Degree Days 34 (Base 50)    
Moisture  
Dew Point 69 °F    
Average Humidity 70    
Maximum Humidity 93    
Minimum Humidity 41    
Precipitation  
Precipitation 0.00 in - - ()
Sea Level Pressure  
Sea Level Pressure 30.06 in    
Wind  
Wind Speed 4 mph (ESE)    
Max Wind Speed 10 mph    
Max Gust Speed 16 mph    
Visibility 10 miles    
Events Thunderstorm    
Averages and records for this station are not official NWS values.
T = Trace of Precipitation, MM = Missing Value Source: NWS Daily Summary

Daily Weather History Graph

Daily Weather History Graph

Search for Another Location

Airport or City:

Trip Planner

Search our weather history database for the weather conditions in past years. The results will help you decide how hot, cold, wet, or windy it might be!

Date:

Astronomy

Aug. 21, 2013 Rise Set
Actual Time 6:42 AM CDT 7:48 PM CDT
Civil Twilight 6:17 AM CDT 8:13 PM CDT
Nautical Twilight 5:47 AM CDT 8:43 PM CDT
Astronomical Twilight 5:16 AM CDT 9:14 PM CDT
Moon 8:06 PM CDT (8/21) 7:16 AM CDT (8/21)
Length of Visible Light 13h 56m
Length of Day
13h 06m
Waxing Gibbous, 99% of the Moon is Illuminated
Aug 21
Waxing Gibbous
Aug 28
Last Quarter
Sep 5
New
Sep 12
First Quarter
Sep 19
Full

Hourly Weather History & Observations

Time (CDT) Temp. Heat Index Dew Point Humidity Pressure Visibility Wind Dir Wind Speed Gust Speed Precip Events Conditions
12:55 AM 73.9 °F - 70.0 °F 87% 30.06 in 10.0 mi SE 5.8 mph - N/A   Clear
1:55 AM 73.0 °F - 71.1 °F 93% 30.06 in 10.0 mi ESE 4.6 mph - N/A   Clear
2:55 AM 73.0 °F - 71.1 °F 93% 30.06 in 10.0 mi Calm Calm - N/A   Clear
3:55 AM 72.0 °F - 70.0 °F 93% 30.05 in 10.0 mi Calm Calm - N/A   Clear
4:55 AM 73.0 °F - 71.1 °F 93% 30.05 in 10.0 mi Calm Calm - N/A   Clear
5:55 AM 73.0 °F - 71.1 °F 93% 30.07 in 10.0 mi Calm Calm - N/A   Clear
6:55 AM 73.0 °F - 71.1 °F 93% 30.08 in 10.0 mi Calm Calm - N/A   Clear
7:55 AM 75.0 °F - 71.1 °F 87% 30.09 in 10.0 mi Calm Calm - N/A   Clear
8:55 AM 79.0 °F - 70.0 °F 74% 30.11 in 10.0 mi ENE 5.8 mph - N/A   Clear
9:55 AM 82.0 °F 86.3 °F 71.1 °F 69% 30.12 in 10.0 mi East 4.6 mph - N/A   Clear
10:55 AM 84.9 °F 88.8 °F 69.1 °F 59% 30.12 in 10.0 mi Variable 5.8 mph - N/A   Clear
11:55 AM 88.0 °F 92.1 °F 69.1 °F 53% 30.12 in 10.0 mi NNE 8.1 mph - N/A   Clear
12:55 PM 91.9 °F 95.9 °F 68.0 °F 45% 30.09 in 10.0 mi NNE 8.1 mph - N/A   Scattered Clouds
1:55 PM 93.0 °F 96.4 °F 66.9 °F 42% 30.07 in 10.0 mi ENE 9.2 mph - N/A   Scattered Clouds
2:55 PM 93.0 °F 96.4 °F 66.9 °F 42% 30.05 in 10.0 mi Calm Calm - N/A   Partly Cloudy
3:55 PM 95.0 °F 99.5 °F 68.0 °F 41% 30.03 in 10.0 mi East 10.4 mph 16.1 mph N/A   Scattered Clouds
4:52 PM 93.2 °F 97.7 °F 68.0 °F 44% 30.01 in 10.0 mi East 6.9 mph - N/A Thunderstorm Thunderstorm
4:55 PM 93.9 °F 98.6 °F 68.0 °F 43% 30.01 in 10.0 mi Variable 5.8 mph - N/A Thunderstorm Thunderstorm
5:55 PM 82.9 °F 85.8 °F 68.0 °F 60% 30.04 in 10.0 mi SSE 10.4 mph - N/A Thunderstorm Thunderstorm
6:55 PM 81.0 °F 83.8 °F 68.0 °F 65% 30.04 in 10.0 mi South 3.5 mph - N/A Thunderstorm Thunderstorm
7:24 PM 80.6 °F 83.9 °F 69.8 °F 70% 30.04 in 10.0 mi South 3.5 mph - N/A   Clear
7:55 PM 79.0 °F - 69.1 °F 72% 30.04 in 10.0 mi SE 5.8 mph - N/A   Clear
8:55 PM 79.0 °F - 70.0 °F 74% 30.03 in 10.0 mi SE 6.9 mph - N/A   Clear
9:55 PM 78.1 °F - 70.0 °F 76% 30.07 in 10.0 mi SE 4.6 mph - N/A   Clear
10:55 PM 77.0 °F - 70.0 °F 79% 30.08 in 10.0 mi ESE 5.8 mph - N/A   Clear
11:55 PM 75.9 °F - 70.0 °F 82% 30.09 in 10.0 mi ESE 6.9 mph - N/A   Clear